Location: Unspecified
(37.6100°N, 2.7800°W)
Time: 07:22:48
(UTC+00:00)

Envisat - Pass Details

Date: 21 October 2018
Orbit: 764 x 766 km, 98.2° (Epoch: 20 November)

Event Time Altitude Azimuth Distance (km) Brightness Sun altitude
Rises 19:14:40 0° 169° (SSE) 3,218 6.1 -22.2°
Reaches altitude 10° 19:16:58 10° 170° (S) 2,295 5.3 -22.7°
Maximum altitude 19:22:02 80° 257° (WSW) 782 3.0 -23.7°
Drops below altitude 10° 19:27:08 10° 345° (NNW) 2,310 5.7 -24.7°
Sets 19:29:27 0° 347° (NNW) 3,240 6.5 -25.1°
